sat.trackr.live / text

‹ back to catalog

STARLINK-1376

NORAD 45570 · 2020-025AR

PAYLOAD ACTIVE UNKNOWN

§ Identity

Operator
Country
US
Launch date
2020-04-22
Launch site
AFETR
Launch vehicle
Mass (kg)
RCS (m²)

Purposes: comms

External: N2YO · Heavens-Above · Gunter

§ Orbital elements

Epoch: 2026-09-19T13:51:51.196032Z

Period
93.06 min
Inclination
53.1503°
Eccentricity
0.0004899
Mean motion
15.47366171 rev/d
Perigee alt
421.1 km
Apogee alt
427.8 km
Semi-major
6,802.6 km
B*
4.0761e-4
RAAN
245.1210°
Arg perigee
57.7027°
Mean anomaly
302.4455°
Rev number
35,535

§ Raw data

STARLINK-13761 45570U 20025AR  26262.57767588  .00020805  00000+0  40761-3 0  99962 45570  53.1503 245.1210 0004899  57.7027 302.4455 15.47366171355358

JSON: /api/v1/satellites/45570 · /tle

For live sub-satellite position, see the globe view (requires WebGL).

§ Visibility from observer

Set your observer location to see the next 7 days of passes ≥ 10°. The values pass through the URL so the page stays shareable.

No JS? Fill the form by hand. The geolocation button needs JavaScript.